Tracking 21992 objects as of 27-Nov-2020
HD Live streaming from Space Station
objects crossing your sky now

SWAMPSAT-2

Track SWAMPSAT-2 now!
10-day predictions
SWAMPSAT-2 is classified as:


NORAD ID: 45115
Int'l Code: 2019-071E
Perigee: 447.5 km
Apogee: 460.4 km
Inclination: 51.6 °
Period: 93.5 minutes
Semi major axis: 6824 km
RCS: Unknown
Launch date: November 2, 2019
Source: United States (US)
Launch site: WALLOPS ISLAND (WLPIS)

Uplink (MHz):
Downlink (MHz): 145.875/436.350/2432.000
Beacon (MHz):
Mode: 9k6 GMSK/3Mbps QPSK
Call sign: WK2XID
Status: Inactive

aabbcc
Your satellite tracking list
Your tracking list is empty




NASA's NSSDC Master Catalog

Two Line Element Set (TLE):
1 45115U 19071E   20332.15351199  .00043098  00000-0  10738-2 0  9993
2 45115  51.6403 292.3585 0009401 292.2267  67.7720 15.39758651 46149
Source of the keplerian elements: AFSPC